Location: ?????
(31.7405°N, 35.1927°E)
Time: 03:55:54
(UTC+00:00)

Daily predictions for brighter satellites

Satellite Brightness Start Highest point End
(mag) Time Altitude Azimuth Time Altitude Azimuth Time Altitude Azimuth
SL-16 R/B 4.4 01:17:45 18° NE 01:17:45 18° NE 01:19:10 10° NNE
Lacrosse 4 Rocket 4.5 01:27:04 12° ESE 01:27:04 12° ESE 01:27:35 10° ESE
USA 229 DEB 4.3 01:48:18 32° N 01:51:47 59° ENE 01:59:18 10° SE
USA 229 4.3 01:48:21 32° N 01:51:52 58° ENE 01:59:22 10° SE
USA 267 3.2 01:57:39 10° SSE 02:03:36 64° SSW 02:03:36 64° SSW
Delta 7925 Rocket 4.4 02:06:31 35° SE 02:06:31 35° SE 02:09:46 10° ESE
Milstar 3 4.3 01:59:10 45° W 02:05:40 76° S 02:15:38 10° ESE
ALOS 4.3 02:03:38 10° NE 02:07:36 27° E 02:11:33 10° SSE
Cosmos 1484 Rocket 4.1 02:06:09 10° NNE 02:09:35 39° E 02:09:35 39° E
Cosmos 1934 Rocket 3.9 02:06:17 10° N 02:12:36 85° W 02:18:57 10° S
H-2A R/B 4.0 02:09:41 10° NNE 02:11:59 31° NNE 02:11:59 31° NNE
DELTA 2 R/B (1) 4.5 02:25:06 30° SSW 02:27:16 43° SE 02:32:31 10° ENE
Cosmos 1605 Rocket 3.9 02:26:24 10° N 02:32:38 89° E 02:38:44 10° S
Shenzhou-11 Module 4.4 02:35:56 18° NE 02:35:56 18° NE 02:36:46 10° NE
BREEZE-M DEB (TANK) 4.5 02:33:04 51° WNW 02:34:25 76° SW 02:47:41 10° SE
STARLINK-1113 4.3 02:33:29 38° S 02:34:25 47° SE 02:38:13 10° NE
STARLINK-1111 4.3 02:35:03 36° S 02:36:12 48° SE 02:40:03 10° NE
STARLINK-1119 4.1 02:37:38 38° S 02:38:43 52° SE 02:42:35 10° NE
Cosmos 2221 2.5 02:35:49 10° S 02:40:02 79° E 02:44:19 10° N
STARLINK-1073 4.1 02:39:23 35° S 02:40:42 54° SE 02:44:36 10° NE
Cosmos 1408 Rocket 3.4 02:39:05 14° N 02:42:51 77° W 02:47:14 10° S
STARLINK-1114 3.9 02:41:45 38° S 02:43:01 59° SE 02:46:54 10° NE
STARLINK-1121 3.9 02:43:45 35° SSW 02:45:13 61° SE 02:49:10 10° NE
Cosmos 1869 4.1 02:42:35 10° S 02:46:29 53° E 02:50:23 10° NNE
STARLINK-1130 (DARKSAT) 3.7 02:45:54 36° SSW 02:47:19 66° SE 02:51:15 10° NE
STARLINK-1106 3.7 02:48:09 33° SSW 02:49:48 69° SE 02:53:47 10° NE
Cosmos 1727 Rocket 3.9 02:43:53 10° SSW 02:50:04 71° W 02:56:14 10° N
SJ-12 3.8 02:46:58 10° NNE 02:51:07 90° WSW 02:55:14 10° SSW
STARLINK-1084 3.6 02:50:03 34° SSW 02:51:39 74° SE 02:55:35 10° NE
METEOR-M 4.1 02:46:40 10° NNE 02:52:01 84° ESE 02:57:22 10° SSW
STARLINK-1056 4.3 02:50:54 24° NNW 02:53:05 50° NE 02:57:06 10° ESE
Aureole 1 Rocket 4.3 02:47:23 10° SSW 02:54:12 72° WNW 03:02:30 10° NNE
STARLINK-1112 3.6 02:52:37 31° SSW 02:54:27 77° SE 02:58:26 10° NE
NOSS 3-1 (C) 4.3 02:49:15 15° NW 02:55:57 57° WSW 03:04:34 10° S
SL-16 R/B 3.9 02:59:40 16° NW 02:59:40 16° NW 03:01:47 10° NNW
STARLINK-1054 4.1 02:55:40 23° NNW 02:58:04 56° NE 03:02:08 10° SE
Cosmos 1943 Rocket 2.9 02:54:11 10° N 02:59:35 53° ENE 03:04:55 10° SE
Cosmos 2297 3.8 02:55:30 17° NW 02:59:36 50° WSW 03:05:01 10° S
Lacrosse 4 Rocket 2.9 03:03:29 22° SW 03:03:29 22° SW 03:06:04 10° SSW
STARLINK-1062 4.0 03:00:28 21° NNW 03:03:03 63° NE 03:07:09 10° SE
Lacrosse 5 3.8 03:00:50 10° NNW 03:05:02 25° NE 03:09:13 10° E
STARLINK-1053 3.8 03:05:14 20° NW 03:08:01 71° NE 03:12:08 10° SE
Cosmos 407 Rocket 3.5 03:03:18 10° SSW 03:08:35 65° WNW 03:13:52 10° N
Cosmos 292 Rocket 3.8 03:05:09 10° NNW 03:09:45 51° WSW 03:14:20 10° S
SKYMED 2 3.4 03:08:03 10° S 03:12:21 74° WSW 03:16:42 10° NNW
STARLINK-1061 3.7 03:10:02 18° NW 03:13:01 80° NE 03:17:08 10° SE
Cosmos 1238 4.1 03:10:23 10° SSW 03:13:39 60° W 03:16:38 10° N
Cosmos 1603 3.9 03:08:16 10° SW 03:13:47 49° WNW 03:19:19 10° N
IUS-17 SRM-1 3.0 03:14:06 26° SW 03:15:04 43° S 03:19:13 10° ESE
Cosmos 1140 Rocket 3.4 03:10:31 10° SSW 03:15:44 80° WNW 03:21:00 10° NNE
STARLINK-1067 3.6 03:14:47 17° NW 03:17:57 89° NE 03:22:06 10° SE
FENGYUN 3A 3.8 03:14:12 10° N 03:19:27 51° WNW 03:24:41 10° SSW
Cosmos 2369 Rocket 2.7 03:14:12 10° NNW 03:19:53 64° ENE 03:25:31 10° SSE
Cosmos 1943 3.2 03:15:34 10° SW 03:21:03 56° WNW 03:26:35 10° N
Cosmos 1805 Rocket 4.5 03:16:56 10° N 03:21:10 51° E 03:25:22 10° SSE
Cosmos 2100 Rocket 4.0 03:15:05 10° N 03:21:19 86° E 03:27:28 10° S
STARLINK-1058 3.5 03:19:34 15° NW 03:22:56 82° SW 03:27:04 10° SE
CZ-4B DEB 4.2 03:19:10 10° N 03:24:33 60° WNW 03:29:53 10° SSW
Cosmos 1000 Rocket 4.4 03:18:53 10° SSW 03:24:58 70° W 03:31:09 10° N
Aurora 2 Rocket 3.6 03:23:04 12° WSW 03:26:40 29° S 03:29:48 10° ESE
STARLINK-1043 3.6 03:24:20 14° NW 03:27:54 73° SW 03:32:00 10° SE
Meteor 2-3 Rocket 4.1 03:22:29 10° NNW 03:27:55 44° W 03:33:22 10° SSW
Sich 1 4.4 03:24:30 10° N 03:28:36 43° E 03:32:41 10° SSE
Okean O Rocket 1.5 03:24:30 10° N 03:28:53 81° WNW 03:33:12 10° SSW
Cosmos 1500 Rocket 3.8 03:24:40 10° NNW 03:28:55 48° W 03:33:07 10° SSW
H-2A R/B 3.8 03:26:14 10° NNE 03:29:50 47° E 03:33:25 10° S
SJ-7 4.4 03:25:50 10° N 03:30:05 88° WNW 03:34:16 10° SSW
Cosmos 1190 Rocket 4.3 03:25:29 10° SW 03:30:30 46° WNW 03:35:35 10° N
STARLINK-1065 3.6 03:28:47 12° NW 03:32:30 65° SW 03:36:34 10° SSE
STARLINK-1098 4.0 03:31:21 12° WSW 03:34:41 40° NW 03:38:27 10° NNE
CZ-4B R/B 3.1 03:31:06 10° N 03:36:24 76° WNW 03:41:40 10° SSW
STARLINK-1063 3.7 03:33:54 11° NW 03:37:48 57° SW 03:41:52 10° SSE
STARLINK-1123 4.2 03:35:38 11° WSW 03:39:10 36° NW 03:42:52 10° NNE
Cosmos 1743 Rocket 4.3 03:36:28 10° NNW 03:40:15 31° W 03:44:03 10° SSW
Cosmos 1459 Rocket 4.0 03:34:42 10° N 03:40:51 71° W 03:47:04 10° S
Cosmos 2123 Rocket 4.1 03:35:07 10° S 03:41:27 88° W 03:47:47 10° N
STARLINK-1064 3.9 03:38:46 10° NW 03:42:47 50° SW 03:46:47 10° SSE
STARLINK-1097 4.3 03:40:02 10° WSW 03:43:39 33° NW 03:47:18 10° NNE
ALOS 3.4 03:41:14 10° NNW 03:44:50 22° WNW 03:48:25 10° WSW
Cosmos 2084 3.8 03:41:08 10° SW 03:45:27 47° WNW 03:49:48 10° NNE
Cosmos 1725 Rocket 4.5 03:40:33 10° N 03:46:47 68° E 03:53:02 10° SSE
Cosmos 676 Rocket 4.1 03:42:19 10° SSW 03:47:30 56° WNW 03:52:44 10° N
STARLINK-1041 4.1 03:43:47 10° WNW 03:47:44 44° SW 03:51:40 10° SSE
STARLINK-1099 4.4 03:44:36 10° WSW 03:48:08 30° NW 03:51:42 10° NNE
Cosmos 1328 Rocket 4.4 03:46:27 10° S 03:50:47 57° E 03:55:09 10° NNE
Delta 168 3.9 03:48:14 10° WSW 03:52:02 31° S 03:55:02 10° ESE
NOSS 3-3 (A) 3.9 03:46:41 10° SSW 03:52:22 88° WNW 03:58:36 10° NNE
NOSS 3-3 (C) 3.9 03:46:46 10° SSW 03:52:27 89° W 03:58:43 10° NNE
Cosmos 1151 Rocket 3.8 03:48:24 10° S 03:52:36 57° E 03:56:49 10° NNE
STARLINK-1038 4.2 03:48:49 10° WNW 03:52:40 39° SW 03:56:31 10° SSE
Cosmos 1802 Rocket 4.1 03:47:30 10° NNW 03:53:54 68° W 04:00:13 10° S
ATLAS 2A CENTAUR R/B 3.2 03:54:01 10° WSW 03:56:51 28° S 04:03:59 10° ESE
STARLINK-1046 4.4 03:53:52 10° WNW 03:57:38 34° SW 04:01:23 10° SSE
Delta 7925 Rocket 4.3 03:55:45 10° WSW 04:00:00 36° S 04:04:42 10° ESE
COSMO-SKYMED 1 4.0 03:57:27 10° SW 04:00:30 19° W 04:03:35 10° NW
